[[{"header":{"parameterUnit":"m.s-1","parameterCategory":1,"la1":30.2991,"la2":30.254,"lo1":-89.0895,"lo2":-89.0444,"dy":0.0017,"dx":0.0017,"nx":28,"ny":28,"refTime":"2025-04-30T09:00:00:Z","depth":0,"parameterNumber":2,"parameterNumberName":"U-component_of_WINDS"},"data":[0,0,0,0,0,0,0,0,0,0,0,0,0,0,0,0,0,0,0,0,0,0,0,0,0,0,0,0,0,0,0,0,0,0,0,0,0,0,0,0,0,0,0,0,0,0,0,0,0,0,0,0,0,0,0,0,0,0,-2.7117,-2.7118,0,-2.7217,-2.7218,-2.7219,-2.7247,-2.7247,-2.7246,-2.7246,-2.7348,-2.7352,-2.7355,0,0,0,0,0,0,0,0,0,0,0,0,0,-2.6952,-2.6954,-2.7117,-2.7118,-2.7119,-2.7216,-2.7218,-2.7219,-2.7247,-2.7247,-2.7246,-2.7245,-2.7347,-2.7351,-2.7355,0,0,0,0,0,0,0,0,0,0,0,0,0,-2.7035,-2.6955,-2.7116,-2.7145,-2.7148,-2.7216,-2.7218,-2.722,-2.7247,-2.7247,-2.7246,-2.7245,-2.7346,-2.7351,-2.7356,-2.7402,0,0,-2.7371,-2.7373,0,0,0,0,0,0,0,0,-2.703,-2.7041,-2.714,-2.7143,-2.7147,-2.7219,-2.7197,-2.7281,-2.7248,-2.721,-2.7246,-2.7245,-2.7306,-2.7314,-2.7335,-2.7407,-2.7412,-2.7371,-2.7374,-2.7376,-2.7377,0,0,0,0,0,0,0,-2.7024,-2.7036,-2.7156,-2.7141,-2.7146,-2.7153,-2.7164,-2.7213,-2.7261,-2.7213,-2.7215,-2.7227,-2.7308,-2.733,-2.7337,-2.7413,-2.7371,-2.7375,-2.7378,-2.738,-2.7529,-2.753,0,0,0,0,0,0,-2.7013,-2.7031,-2.7153,-2.7159,-2.7085,-2.7157,-2.7169,-2.7197,-2.7261,-2.727,-2.7227,-2.7228,-2.7322,-2.7332,-2.7341,-2.74,-2.7376,-2.7381,-2.7383,-2.7528,-2.7529,-2.753,0,0,0,0,0,0,-2.701,-2.7024,-2.7149,-2.7096,-2.7113,-2.716,-2.7191,-2.7199,-2.7221,-2.7272,-2.728,-2.7241,-2.7322,-2.7334,-2.7387,-2.7404,-2.7383,-2.7387,-2.7527,-2.7529,-2.753,-2.7517,0,0,0,0,0,0,-2.7005,-2.7022,-2.704,-2.7096,-2.7115,-2.7193,-2.7192,-2.7201,-2.7229,-2.7231,-2.7287,-2.7295,-2.7322,-2.7379,-2.7392,-2.741,-2.7391,-2.7526,-2.7528,-2.7529,-2.7516,-2.7518,-2.752,0,0,0,0,0,-2.6999,-2.7033,-2.7041,-2.7055,-2.7139,-2.7194,-2.7205,-2.7235,-2.723,-2.7249,-2.7282,-2.7293,-2.74,-2.7385,-2.7399,-2.7419,-2.7525,-2.7527,-2.7529,-2.7516,-2.7518,-2.752,0,0,0,0,0,0,-2.6978,-2.7041,-2.705,-2.7104,-2.7143,-2.7198,-2.7223,-2.7236,-2.7278,-2.7277,-2.7313,-2.7325,-2.7375,-2.7403,-2.7384,-2.7467,-2.7463,-2.7468,-2.7447,-2.745,-2.7452,-2.7443,-2.7395,0,0,0,0,0,-2.6979,-2.7018,-2.7072,-2.7113,-2.7133,-2.7174,-2.7199,-2.7219,-2.7262,-2.7278,-2.7315,-2.7356,-2.7399,-2.7426,-2.7468,-2.7521,-2.7533,-2.7542,-2.7543,-2.7544,-2.7548,-2.7578,-2.7582,-2.7538,-2.7538,-2.7538,0,0,-2.6983,-2.7022,-2.7045,-2.711,-2.7143,-2.7183,-2.7188,-2.723,-2.726,-2.7285,-2.7337,-2.7365,-2.7413,-2.7466,-2.7491,-2.749,-2.7563,-2.7547,-2.7548,-2.7551,-2.7581,-2.7585,-2.7588,-2.754,-2.7539,-2.7539,0,0,-2.701,-2.7044,-2.7082,-2.7115,-2.7164,-2.7192,-2.7201,-2.7255,-2.7274,-2.7327,-2.7346,-2.7383,-2.7456,-2.7489,-2.7516,-2.7556,-2.7568,-2.7569,-2.7577,-2.7605,-2.7609,-2.7612,-2.7626,-2.763,-2.7573,-2.7573,-2.7573,0,-2.7008,-2.7068,-2.71,-2.7141,-2.7169,-2.7194,-2.7233,-2.7263,-2.7324,-2.7343,-2.7342,-2.7434,-2.7468,-2.7529,-2.7538,-2.7559,-2.7571,-2.7562,-2.7606,-2.7609,-2.7613,-2.7626,-2.7631,-2.7572,-2.7572,-2.7572,-2.7572,0,-2.7064,-2.7105,-2.7131,-2.7188,-2.722,-2.726,-2.7297,-2.7325,-2.7343,-2.737,-2.7424,-2.7466,-2.7517,-2.7533,-2.755,-2.7596,-2.7594,-2.7599,-2.7595,-2.7616,-2.7629,-2.7635,-2.7572,-2.7572,-2.7572,-2.7572,0,0,-2.7079,-2.7154,-2.7163,-2.7189,-2.7246,-2.7279,-2.732,-2.737,-2.7393,-2.7435,-2.747,-2.7532,-2.7536,-2.7566,-2.7588,-2.7613,-2.7642,-2.7615,-2.7616,-2.7617,-2.7694,-2.769,-2.7695,-2.7651,-2.7652,-2.7653,-2.769,0,-2.7112,-2.7186,-2.7216,-2.7276,-2.7315,-2.7339,-2.7375,-2.7414,-2.7441,-2.7479,-2.7509,-2.7552,-2.7555,-2.7573,-2.7599,-2.7632,-2.7657,-2.763,-2.7683,-2.7685,-2.7669,-2.7702,-2.7697,-2.7731,-2.7695,-2.7696,-2.7697,0,-2.7161,-2.7202,-2.7266,-2.7318,-2.7335,-2.7367,-2.7415,-2.7451,-2.7495,-2.7514,-2.7547,-2.7568,-2.7612,-2.7606,-2.7668,-2.7649,-2.7673,-2.7692,-2.7694,-2.77,-2.7691,-2.7707,-2.7742,-2.7746,-2.7706,-2.7705,-2.7704,0,-2.7165,-2.7237,-2.7284,-2.7306,-2.7368,-2.739,-2.7417,-2.7461,-2.7489,-2.7531,-2.755,-2.7597,-2.7622,-2.7658,-2.7691,-2.7683,-2.7749,-2.7746,-2.7765,-2.7764,-2.7777,-2.7776,-2.7815,-2.7794,-2.7794,-2.7794,-2.7794,0,-2.7198,-2.7236,-2.7287,-2.7315,-2.7359,-2.7393,-2.7435,-2.7464,-2.7503,-2.7538,-2.7562,-2.7595,-2.7636,-2.7675,-2.77,-2.7747,-2.7759,-2.7775,-2.7781,-2.7772,-2.777,-2.7787,-2.7785,-2.7795,-2.7795,-2.7795,-2.7795,0,-2.721,-2.7245,-2.7298,-2.7352,-2.7367,-2.7396,-2.7443,-2.7472,-2.7501,-2.7545,-2.7558,-2.7603,-2.7649,-2.7685,-2.7745,-2.7763,-2.7812,-2.782,-2.7797,-2.78,-2.7817,-2.7814,-2.7868,-2.7876,-2.785,-2.785,-2.7851,0,-2.7228,-2.7258,-2.7315,-2.734,-2.7367,-2.7407,-2.7436,-2.7471,-2.75,-2.7553,-2.7576,-2.7624,-2.7663,-2.7736,-2.7774,-2.7821,-2.7829,-2.7845,-2.7836,-2.7826,-2.7828,-2.7826,-2.7828,-2.7845,-2.7845,-2.7845,-2.7845,0,-2.7257,-2.7273,-2.7313,-2.7359,-2.7392,-2.743,-2.7469,-2.7489,-2.7531,-2.7562,-2.7609,-2.764,-2.7702,-2.7749,-2.7799,-2.7827,-2.7843,-2.7848,-2.7855,-2.7845,-2.783,-2.7838,-2.7798,-2.7846,-2.7846,-2.7846,-2.7846,-2.7846,-2.7273,-2.73,-2.7344,-2.7388,-2.7421,-2.7456,-2.7486,-2.7518,-2.7558,-2.761,-2.7629,-2.7677,-2.7722,-2.7791,-2.782,-2.7858,-2.7859,-2.7869,-2.7872,-2.7873,-2.7872,-2.7825,-2.7868,-2.7868,-2.7868,-2.7868,-2.7868,0,-2.7302,-2.7332,-2.7372,-2.7425,-2.7459,-2.7471,-2.7515,-2.7543,-2.7585,-2.7625,-2.7663,-2.7718,-2.7763,-2.7805,-2.7853,-2.7876,-2.7885,-2.7887,-2.7886,-2.7892,-2.7869,-2.7858,-2.788,-2.788,-2.788,-2.788,-2.788,-2.788,-2.7322,-2.7368,-2.7389,-2.7452,-2.7482,-2.7529,-2.7553,-2.7586,-2.7618,-2.7677,-2.7715,-2.7742,-2.7783,-2.7834,-2.7877,-2.7888,-2.7904,-2.7905,-2.7918,-2.7895,-2.7893,-2.7892,-2.7882,-2.7908,-2.7908,-2.7938,-2.7938,-2.7938]},{"header":{"parameterUnit":"m.s-1","parameterCategory":1,"la1":30.2991,"la2":30.254,"lo1":-89.0895,"lo2":-89.0444,"dy":0.0017,"dx":0.0017,"nx":28,"ny":28,"refTime":"2025-04-30T09:00:00:Z","depth":0,"parameterNumber":3,"parameterNumberName":"V-component_of_WINDS"},"data":[0,0,0,0,0,0,0,0,0,0,0,0,0,0,0,0,0,0,0,0,0,0,0,0,0,0,0,0,0,0,0,0,0,0,0,0,0,0,0,0,0,0,0,0,0,0,0,0,0,0,0,0,0,0,0,0,0,0,5.7325,5.7325,0,5.7307,5.7307,5.7307,5.7214,5.7211,5.7209,5.7207,5.719,5.7191,5.7193,0,0,0,0,0,0,0,0,0,0,0,0,0,5.7279,5.7281,5.7325,5.7325,5.7324,5.7307,5.7307,5.7307,5.7214,5.7211,5.7209,5.7206,5.7189,5.7191,5.7193,0,0,0,0,0,0,0,0,0,0,0,0,0,5.7284,5.7281,5.7325,5.7276,5.7271,5.7307,5.7307,5.7307,5.7214,5.7211,5.7208,5.7205,5.7189,5.7191,5.7193,5.7275,0,0,5.7201,5.7202,0,0,0,0,0,0,0,0,5.7284,5.7286,5.7283,5.7279,5.7274,5.7259,5.7285,5.7296,5.7215,5.7236,5.7207,5.7203,5.7216,5.7216,5.722,5.7274,5.7274,5.7201,5.7202,5.7204,5.7204,0,0,0,0,0,0,0,5.7284,5.7286,5.7318,5.7284,5.7278,5.7255,5.7252,5.7286,5.7245,5.7234,5.7227,5.7226,5.7213,5.7218,5.7219,5.7273,5.7201,5.7203,5.7205,5.7206,5.7395,5.7398,0,0,0,0,0,0,5.729,5.7287,5.7318,5.7317,5.7271,5.7259,5.7256,5.7267,5.7244,5.7237,5.7229,5.7222,5.7215,5.7216,5.7218,5.7311,5.7204,5.7206,5.7207,5.7391,5.7396,5.74,0,0,0,0,0,0,5.729,5.7294,5.7319,5.73,5.7302,5.7263,5.7277,5.7269,5.7274,5.7241,5.7233,5.7242,5.7212,5.7214,5.7262,5.7309,5.7207,5.7209,5.7387,5.7393,5.7398,5.75,0,0,0,0,0,0,5.7289,5.7294,5.7325,5.7302,5.7303,5.7363,5.728,5.7271,5.7278,5.7269,5.725,5.7244,5.721,5.7259,5.7264,5.7311,5.7211,5.7383,5.739,5.7396,5.7492,5.7508,5.7522,0,0,0,0,0,5.7287,5.7354,5.7327,5.7331,5.734,5.7366,5.7367,5.7326,5.7282,5.7313,5.7292,5.7245,5.7304,5.7264,5.727,5.7318,5.7379,5.7388,5.7395,5.7486,5.7505,5.7522,0,0,0,0,0,0,5.7384,5.735,5.7319,5.738,5.7377,5.735,5.7387,5.7348,5.7357,5.7348,5.7297,5.7294,5.7348,5.7338,5.7294,5.7396,5.7334,5.7343,5.74,5.7419,5.7434,5.7434,5.7213,0,0,0,0,0,5.7412,5.7436,5.7406,5.7463,5.7463,5.7426,5.7435,5.7404,5.7399,5.7397,5.7379,5.7376,5.7393,5.7406,5.742,5.7491,5.7486,5.7527,5.7542,5.7555,5.7563,5.76,5.7618,5.7426,5.7426,5.7426,0,0,5.7471,5.7456,5.7474,5.7482,5.7475,5.7501,5.7425,5.7455,5.7474,5.7401,5.7444,5.7432,5.7425,5.7484,5.751,5.7477,5.7615,5.7565,5.7575,5.7577,5.761,5.7628,5.7644,5.7431,5.743,5.743,0,0,5.7591,5.7582,5.7628,5.7624,5.7615,5.759,5.7602,5.7582,5.757,5.7613,5.7559,5.7581,5.7613,5.761,5.7613,5.7734,5.7691,5.774,5.7817,5.7854,5.7869,5.7882,5.7924,5.794,5.7749,5.7749,5.7749,0,5.7664,5.7701,5.7657,5.7691,5.7696,5.7633,5.7679,5.7677,5.7674,5.7679,5.7644,5.7682,5.7673,5.7731,5.7761,5.7765,5.7777,5.7741,5.787,5.7883,5.7894,5.7934,5.795,5.7755,5.7755,5.7754,5.7753,0,5.7792,5.7819,5.7857,5.7856,5.7865,5.7906,5.7869,5.7884,5.7853,5.7833,5.7877,5.7864,5.7875,5.7887,5.7857,5.7941,5.7921,5.7879,5.7815,5.7919,5.7956,5.7971,5.7764,5.7762,5.776,5.7758,0,0,5.7969,5.7944,5.7959,5.7958,5.7945,5.7964,5.8003,5.8013,5.8027,5.8028,5.8058,5.8088,5.8048,5.8052,5.8021,5.8054,5.815,5.8007,5.8006,5.8033,5.8241,5.8272,5.829,5.8122,5.8125,5.8127,5.8241,0,5.8083,5.8146,5.8108,5.8177,5.8201,5.8142,5.8175,5.8171,5.8153,5.8171,5.8152,5.8173,5.812,5.8122,5.8151,5.8132,5.819,5.8123,5.8149,5.8151,5.8151,5.8309,5.8341,5.8449,5.8255,5.8257,5.8259,0,5.8223,5.823,5.8301,5.8284,5.8292,5.8323,5.833,5.8348,5.8343,5.8328,5.8333,5.8294,5.8331,5.827,5.832,5.8275,5.8284,5.8276,5.8279,5.8279,5.821,5.8311,5.8483,5.8499,5.8281,5.828,5.8278,0,5.8344,5.8371,5.8417,5.8418,5.84,5.8422,5.8416,5.8407,5.8416,5.8423,5.8428,5.8439,5.8445,5.8455,5.8421,5.838,5.8476,5.8411,5.8464,5.8465,5.8485,5.8484,5.8659,5.8494,5.8494,5.8493,5.8493,0,5.8474,5.8519,5.8471,5.8499,5.8549,5.8506,5.8557,5.8544,5.8537,5.8562,5.8512,5.8537,5.8491,5.8512,5.8486,5.8531,5.8534,5.8523,5.8515,5.8526,5.8528,5.853,5.8521,5.8498,5.8497,5.8496,5.8495,0,5.8616,5.8586,5.8632,5.8611,5.8607,5.8644,5.8626,5.8652,5.8632,5.8664,5.8669,5.8637,5.8659,5.8627,5.8644,5.8627,5.8689,5.8671,5.8691,5.8684,5.8738,5.8733,5.8919,5.8941,5.8765,5.8766,5.8768,0,5.87,5.8733,5.8716,5.8729,5.8726,5.8747,5.8756,5.8717,5.8728,5.8726,5.8751,5.8769,5.878,5.8817,5.8796,5.8809,5.879,5.8855,5.8792,5.8802,5.8789,5.8787,5.879,5.8867,5.8869,5.8871,5.8872,0,5.8851,5.8835,5.885,5.886,5.8873,5.8879,5.8881,5.8895,5.8853,5.8869,5.889,5.8899,5.8918,5.8935,5.8944,5.8937,5.8898,5.8893,5.8905,5.8916,5.8926,5.892,5.8724,5.8888,5.8886,5.8885,5.8884,5.8884,5.8966,5.8993,5.8985,5.9004,5.9002,5.9006,5.9028,5.9012,5.9028,5.904,5.9016,5.9043,5.9038,5.9045,5.9043,5.9064,5.9036,5.9055,5.9059,5.9064,5.9072,5.8924,5.9066,5.9066,5.9065,5.9065,5.9064,0,5.9113,5.9106,5.9124,5.9129,5.9144,5.9107,5.9108,5.9123,5.9147,5.9146,5.9158,5.9183,5.92,5.9181,5.9195,5.9216,5.9198,5.922,5.9218,5.9217,5.9097,5.9084,5.9234,5.9234,5.9234,5.9234,5.9234,5.9234,5.9192,5.9236,5.9219,5.9262,5.9254,5.928,5.9284,5.9288,5.9286,5.9316,5.933,5.9318,5.9309,5.9322,5.9337,5.9331,5.9338,5.9366,5.9354,5.9242,5.9225,5.9209,5.9197,5.9368,5.9369,5.9472,5.9473,5.9474]}]]